Alexandria, MN

5:27 PM CDT on September 23, 2017 (GMT -0500)
Chandler

Weather History for KAXN - March, 2014

Change the Weather History Date:

Friday, March 7, 2014

  Actual Average Record
Temperature  
Mean Temperature 20 °F -  
Max Temperature 30 °F 30 °F 71 °F (1987)
Min Temperature 9 °F 10 °F -23 °F (1967)
Degree Days  
Heating Degree Days 45    
Moisture  
Dew Point 20 °F    
Average Humidity 85    
Maximum Humidity 100    
Minimum Humidity 71    
Precipitation  
Precipitation 0.00 in - - ()
Sea Level Pressure  
Sea Level Pressure 29.92 in    
Wind  
Wind Speed 11 mph (NW)    
Max Wind Speed 24 mph    
Max Gust Speed 32 mph    
Visibility 6 miles    
Events Fog , Rain    
Averages and records for this station are not official NWS values.
T = Trace of Precipitation, MM = Missing Value Source: NWS Daily Summary

Daily Weather History Graph

Daily Weather History Graph

Search for Another Location

Airport or City:

Trip Planner

Search our weather history database for the weather conditions in past years. The results will help you decide how hot, cold, wet, or windy it might be!

Date:

Astronomy

Mar. 07, 2014 Rise Set
Actual Time 6:49 AM CST 6:16 PM CST
Civil Twilight 6:19 AM CST 6:46 PM CST
Nautical Twilight 5:45 AM CST 7:20 PM CST
Astronomical Twilight 5:10 AM CST 7:55 PM CST
Moon 10:23 AM CST (3/7) 12:41 AM CST (3/7)
Length of Visible Light 12h 26m
Length of Day
11h 27m
Waxing Crescent, 42% of the Moon is Illuminated
Mar 7
Waxing Crescent
Mar 8
First Quarter
Mar 16
Full
Mar 23
Last Quarter
Mar 30
New

Hourly Weather History & Observations

Time (CST) Temp. Windchill Dew Point Humidity Pressure Visibility Wind Dir Wind Speed Gust Speed Precip Events Conditions
12:10 AM 26.6 °F 21.2 °F 24.8 °F 93% 29.72 in 2.5 mi South 4.6 mph - N/A   Scattered Clouds
12:53 AM 27.0 °F 23.0 °F 25.0 °F 92% 29.78 in 2.5 mi SE 3.5 mph - N/A   Overcast
1:53 AM 28.0 °F 24.2 °F 26.1 °F 92% 29.78 in 2.5 mi South 3.5 mph - N/A   Overcast
2:20 AM 28.4 °F 23.3 °F 24.8 °F 86% 29.72 in 3.0 mi South 4.6 mph - N/A   Overcast
2:43 AM 28.4 °F 23.3 °F 26.6 °F 93% 29.72 in 2.5 mi SSW 4.6 mph - N/A   Overcast
2:53 AM 28.0 °F 24.2 °F 26.1 °F 92% 29.79 in 3.0 mi SSW 3.5 mph - N/A   Overcast
3:01 AM 28.4 °F 23.3 °F 24.8 °F 86% 29.73 in 2.5 mi SW 4.6 mph - N/A   Overcast
3:28 AM 28.4 °F 23.3 °F 26.6 °F 93% 29.73 in 2.5 mi WSW 4.6 mph - 0.00 in   Overcast
3:38 AM 28.4 °F 22.2 °F 26.6 °F 93% 29.73 in 2.5 mi West 5.8 mph - 0.00 in Rain Light Freezing Rain
3:46 AM 28.4 °F 22.2 °F 26.6 °F 93% 29.73 in 2.5 mi WSW 5.8 mph - 0.00 in Rain Light Freezing Rain
3:53 AM 28.9 °F 22.8 °F 26.1 °F 89% 29.80 in 2.5 mi West 5.8 mph - 0.00 in Rain Light Freezing Rain
4:18 AM 30.2 °F 22.6 °F 26.6 °F 86% 29.74 in 2.5 mi WNW 8.1 mph - 0.00 in   Overcast
4:25 AM 30.2 °F 21.3 °F 28.4 °F 93% 29.75 in 2.5 mi WNW 10.4 mph - 0.00 in   Overcast
4:47 AM 30.2 °F 19.8 °F 28.4 °F 93% 29.74 in 1.8 mi NW 13.8 mph - 0.00 in   Overcast
4:53 AM 30.9 °F 20.2 °F 28.9 °F 92% 29.80 in 1.5 mi NW 15.0 mph - 0.00 in   Overcast
5:00 AM 30.2 °F 20.2 °F 30.2 °F 100% 29.75 in 1.2 mi NW 12.7 mph - N/A   Overcast
5:14 AM 30.2 °F 19.3 °F 28.4 °F 93% 29.75 in 0.5 mi NNW 15.0 mph - N/A Fog Light Freezing Fog
5:25 AM 30.2 °F 16.8 °F 28.4 °F 93% 29.76 in 1.0 mi NNW 23.0 mph 31.1 mph N/A   Overcast
5:30 AM 28.4 °F 15.4 °F 26.6 °F 93% 29.76 in 2.0 mi NNW 19.6 mph 31.1 mph N/A   Overcast
5:41 AM 28.4 °F 17.0 °F 26.6 °F 93% 29.77 in 3.0 mi NNW 15.0 mph 24.2 mph N/A   Overcast
5:53 AM 27.0 °F 12.5 °F 24.1 °F 89% 29.85 in 4.0 mi NNW 23.0 mph 28.8 mph N/A   Overcast
6:17 AM 26.6 °F 13.1 °F 21.2 °F 80% 29.81 in 5.0 mi NNW 19.6 mph 28.8 mph N/A   Overcast
6:35 AM 24.8 °F 9.6 °F 19.4 °F 80% 29.82 in 6.0 mi NNW 23.0 mph 29.9 mph N/A   Haze
6:53 AM 24.1 °F 10.1 °F 19.9 °F 84% 29.91 in 5.0 mi NNW 18.4 mph 25.3 mph N/A   Overcast
7:02 AM 23.0 °F 7.2 °F 19.4 °F 86% 29.85 in 5.0 mi NNW 23.0 mph 27.6 mph N/A   Overcast
7:13 AM 23.0 °F 9.6 °F 17.6 °F 80% 29.86 in 5.0 mi NNW 16.1 mph 24.2 mph N/A   Haze
7:21 AM 21.2 °F 6.0 °F 17.6 °F 86% 29.87 in 5.0 mi NNW 19.6 mph 25.3 mph N/A   Overcast
7:53 AM 21.9 °F 7.8 °F 18.0 °F 85% 29.95 in 5.0 mi NNW 17.3 mph 29.9 mph N/A   Overcast
8:53 AM 19.9 °F 5.2 °F 16.0 °F 85% 29.97 in 7.0 mi NNW 17.3 mph 32.2 mph N/A   Overcast
9:53 AM 19.0 °F 3.2 °F 14.0 °F 81% 30.00 in 8.0 mi NNW 19.6 mph 26.5 mph N/A   Overcast
10:53 AM 19.0 °F 1.6 °F 14.0 °F 81% 30.03 in 8.0 mi NNW 24.2 mph 31.1 mph N/A   Overcast
11:53 AM 19.9 °F 3.5 °F 14.0 °F 78% 30.04 in 8.0 mi NNW 21.9 mph 27.6 mph N/A   Overcast
12:19 PM 19.4 °F 3.6 °F 12.2 °F 74% 29.98 in 10.0 mi NNW 19.6 mph 26.5 mph N/A   Overcast
12:53 PM 21.0 °F 5.0 °F 14.0 °F 74% 30.06 in 10.0 mi NNW 21.9 mph 25.3 mph N/A   Overcast
1:53 PM 21.0 °F 5.7 °F 14.0 °F 74% 30.08 in 9.0 mi NNW 19.6 mph 27.6 mph N/A   Overcast
2:53 PM 21.9 °F 7.3 °F 14.0 °F 72% 30.10 in 8.0 mi NNW 18.4 mph 25.3 mph N/A   Overcast
3:53 PM 21.9 °F 7.8 °F 14.0 °F 72% 30.12 in 10.0 mi NNW 17.3 mph 25.3 mph N/A   Mostly Cloudy
4:14 PM 21.2 °F 7.3 °F 14.0 °F 74% 30.06 in 10.0 mi NNW 16.1 mph - N/A   Partly Cloudy
4:53 PM 21.0 °F 7.1 °F 12.9 °F 71% 30.15 in 10.0 mi NNW 16.1 mph 24.2 mph N/A   Clear
5:53 PM 19.9 °F 6.7 °F 12.9 °F 74% 30.18 in 10.0 mi NNW 13.8 mph - N/A   Clear
6:53 PM 18.0 °F 4.2 °F 12.0 °F 78% 30.22 in 10.0 mi NNW 13.8 mph - N/A   Clear
7:53 PM 17.1 °F 4.3 °F 10.9 °F 77% 30.25 in 10.0 mi NNW 11.5 mph - N/A   Clear
8:53 PM 15.1 °F 2.5 °F 10.0 °F 80% 30.27 in 10.0 mi NNW 10.4 mph - N/A   Clear
9:53 PM 12.9 °F 2.6 °F 9.0 °F 84% 30.29 in 10.0 mi NNW 6.9 mph - N/A   Clear
10:53 PM 10.9 °F -1.8 °F 7.0 °F 84% 30.30 in 10.0 mi North 9.2 mph - N/A   Clear
11:53 PM 9.0 °F 0.6 °F 6.1 °F 88% 30.32 in 10.0 mi NNW 4.6 mph - N/A   Clear